Effective Sunday, March 17, 2024, the National Weather Service National Data Buoy Center will discontinue its Dial-A-Buoy Interactive Voice Response system. For more information, see Service Change Notice 24-06 (PDF).

Station VCAF1 - 8723970 - Vaca Key, FL Image indicating link to RSS feed of recent meteorological observations for station VCAF1


Conditions at VCAF1 as of
(3:54 pm EST)
2054 GMT on 02/23/2024:
     

Click on the graph icon in the table below to see a time series plot of the last five days of that observation.

5-day plot - Wind Direction Wind Direction (WDIR):WSW ( 250 deg true )
5-day plot - Wind Speed Wind Speed (WSPD): 4.1 kts
5-day plot - Wind Gust Wind Gust (GST): 11.1 kts
5-day plot - Air Temperature Air Temperature (ATMP): 75.9 °F
5-day plot - Water Temperature Water Temperature (WTMP): 71.2 °F
5-day plot - Wind Speed at 10 Meters Wind Speed at 10 meters (WSPD10M): 3.9 kts
5-day plot - Wind Speed at 20 Meters Wind Speed at 20 meters (WSPD20M): 5.8 kts
5-day plot -  Wind Speed, Wind Gust and Atmospheric Pressure Combined plot of Wind Speed, Gust, and Air Pressure
NOS Water Level Observation Network Water Level
Previous observations
TIME
(EST)
5-day plot - Wind Direction
WDIR
 
5-day plot - Wind Speed
WSPD
kts
5-day plot - Wind Gust
GST
kts
5-day plot - Wave Height
WVHT
ft
5-day plot - Dominant Wave Period
DPD
sec
5-day plot - Average Wave Period
APD
sec
5-day plot - Mean Wave Direction
MWD
 
5-day plot - Atmospheric Pressure
PRES
in
5-day plot - Pressure Tendency
PTDY
in
5-day plot - Air Temperature
ATMP
°F
5-day plot - Water Temperature
WTMP
°F
5-day plot - Dew Point
DEWP
°F
5-day plot - Salinity
SAL
psu
5-day plot - Visibility
VIS
nmi
5-day plot - Tide (above MLLW)
TIDE
ft
2024-02-23 03:48 pmWSW 5.1 11.1------ 75.9 71.2----
2024-02-23 03:42 pmWSW 4.1 9.9------ 75.9 71.2----
2024-02-23 03:36 pmWSW 5.1 9.9------ 76.5 71.2----
2024-02-23 03:30 pmWSW 5.1 9.9------ 76.6 71.2----
2024-02-23 03:24 pm SW 2.9 8.9------ 77.2 71.2----
2024-02-23 03:18 pmWSW 1.9 7.0------ 77.7 71.1----
2024-02-23 03:12 pmSSW 2.9 8.9------ 77.5 71.1----
2024-02-23 03:06 pm SW 4.1 8.9------ 77.0 71.1----
2024-02-23 03:00 pm SW 1.9 7.0------ 77.5 71.1----
2024-02-23 02:54 pm SW 2.9 9.9------ 77.4 71.1----
2024-02-23 02:48 pm SW 2.9 8.9------ 76.5 70.9----
2024-02-23 02:42 pm SW 4.1 8.0------ 76.8 70.9----
2024-02-23 02:36 pmSSW 2.9 7.0------ 76.6 70.9----
2024-02-23 02:30 pmSSW 4.1 8.0------ 76.3 70.9----
2024-02-23 02:24 pm SW 4.1 8.0------ 75.9 70.7----
2024-02-23 02:18 pmSSW 5.1 9.9------ 75.7 70.7----
2024-02-23 02:12 pm SW 2.9 8.9------ 76.3 70.7----
2024-02-23 02:06 pm SW 5.1 11.1------ 76.5 70.5----
2024-02-23 02:00 pm SW 4.1 9.9------ 76.8 70.5----
2024-02-23 01:54 pm SW 2.9 8.0------ 77.2 70.3----
2024-02-23 01:48 pm SW 2.9 7.0------ 77.0 70.3----
2024-02-23 01:42 pm SW 5.1 8.9------ 76.8 70.3----
2024-02-23 01:36 pmSSW 4.1 7.0------ 77.0 70.3----
2024-02-23 01:30 pmSSW 5.1 8.0------ 76.8 70.3----
2024-02-23 01:24 pmSSW 5.1 8.0------ 76.6 70.3----
2024-02-23 01:18 pmSSW 6.0 9.9------ 76.6 70.3----
2024-02-23 01:12 pmSSW 4.1 9.9------ 77.0 70.3----
2024-02-23 01:06 pmSSW 2.9 11.1------ 77.2 70.3----
2024-02-23 01:00 pm SW 4.1 8.0------ 77.0 70.2----
2024-02-23 12:54 pmSSW 5.1 9.9------ 76.5 70.2----
2024-02-23 12:48 pm SW 4.1 9.9------ 76.8 70.2----
2024-02-23 12:42 pmSSW 5.1 11.1------ 76.3 70.2----
2024-02-23 12:36 pm S 4.1 9.9------ 76.6 70.3----
2024-02-23 12:30 pmSSW 5.1 9.9------ 77.0 70.3----
2024-02-23 12:24 pmSSW 5.1 9.9------ 76.5 70.3----
2024-02-23 12:18 pmSSW 2.9 9.9------ 77.0 70.3----
2024-02-23 12:12 pmSSW 4.1 7.0------ 76.6 70.3----
2024-02-23 12:06 pmSSW 5.1 8.9------ 76.5 70.3----
2024-02-23 12:00 pmSSW 4.1 8.0------ 76.8 70.2----
2024-02-23 11:54 amSSW 5.1 8.9------ 76.6 70.2----
2024-02-23 11:48 am S 7.0 9.9------ 75.4 70.2----
2024-02-23 11:42 am S 6.0 9.9------ 75.4 70.0----
2024-02-23 11:36 amSSW 6.0 8.9------ 75.6 70.0----
2024-02-23 11:30 amSSW 5.1 11.1------ 75.2 70.0----
2024-02-23 11:24 am S 7.0 11.1------ 75.4 70.0----
2024-02-23 11:18 am S 6.0 11.1------ 75.4 69.8----
2024-02-23 11:12 am S 6.0 12.0------ 75.2 69.8----
2024-02-23 11:06 am S 7.0 11.1------ 74.8 69.6----
2024-02-23 11:00 am S 5.1 9.9------ 75.7 69.6----
2024-02-23 10:54 amSSW 5.1 9.9------ 75.4 69.6----
2024-02-23 10:48 am S 5.1 8.9------ 74.8 69.6----
2024-02-23 10:42 amSSW 5.1 8.9------ 75.4 69.4----
2024-02-23 10:36 amSSW 5.1 9.9------ 75.7 69.4----
2024-02-23 10:30 amSSW 5.1 11.1------ 75.6 69.4----
2024-02-23 10:24 amSSW 6.0 12.0------ 75.0 69.3----
2024-02-23 10:18 amSSW 5.1 9.9------ 75.2 69.3----
2024-02-23 10:12 amSSW 4.1 8.9------ 75.7 69.3----
2024-02-23 10:06 am S 6.0 11.1------ 75.4 69.3----
2024-02-23 10:00 amSSW 5.1 9.9------ 75.2 69.1----
2024-02-23 09:54 amSSW 5.1 11.1------ 75.2 69.1----
2024-02-23 09:48 amSSW 4.1 11.1------ 75.4 69.1----
2024-02-23 09:42 amSSW 4.1 8.0------ 75.2 69.1----
2024-02-23 09:36 amSSW 5.1 12.0------ 74.7 69.1----
2024-02-23 09:30 amSSW 6.0 11.1------ 74.1 68.9----
2024-02-23 09:24 amSSW 5.1 8.9------ 74.8 68.9----
2024-02-23 09:18 am S 7.0 13.0------ 74.1 68.9----
2024-02-23 09:12 amSSW 5.1 11.1------ 74.3 68.9----
2024-02-23 09:06 amSSW 5.1 8.9------ 74.3 68.9----
2024-02-23 09:00 amSSW 6.0 11.1------ 73.9 68.7----
2024-02-23 08:54 amSSW 5.1 11.1------ 73.9 68.7----
2024-02-23 08:48 amSSW 6.0 8.9------ 73.6 68.7----
2024-02-23 08:42 am S 5.1 8.9------ 73.8 68.7----
2024-02-23 08:36 amSSW 4.1 8.9------ 73.6 68.7----
2024-02-23 08:30 amSSW 4.1 8.0------ 72.9 68.7----
2024-02-23 08:24 amSSW 4.1 8.0------ 72.3 68.7----
2024-02-23 08:18 amSSW 5.1 8.9------ 72.3 68.7----
2024-02-23 08:12 amSSW 4.1 7.0------ 72.0 68.7----
2024-02-23 08:06 amSSW 4.1 8.9------ 71.6 68.7----
2024-02-23 08:00 amSSW 2.9 7.0------ 70.5 68.7----
2024-02-23 07:54 amSSW 4.1 7.0------ 70.3 68.7----
2024-02-23 07:48 am S 4.1 5.1------ 70.0 68.7----
2024-02-23 07:42 am S 2.9 5.1------ 69.8 68.7----
2024-02-23 07:36 am S 2.9 5.1------ 70.0 68.7----
2024-02-23 07:30 am S 2.9 5.1------ 69.6 68.7----
2024-02-23 07:24 amSSE 2.9 4.1------ 69.4 68.7----
2024-02-23 07:18 amSSE 2.9 4.1------ 69.3 68.7----
2024-02-23 07:12 amSSE 2.9 4.1------ 69.3 68.7----
2024-02-23 07:06 am SE 1.9 2.9------ 69.4 68.7----
2024-02-23 07:00 amESE 1.9 2.9------ 69.4 68.7----
2024-02-23 06:54 amESE 1.9 2.9------ 69.3 68.7----
2024-02-23 06:48 amESE 1.9 2.9------ 69.1 68.7----
2024-02-23 06:42 amESE 1.9 4.1------ 68.9 68.7----
2024-02-23 06:36 amESE 1.9 2.9------ 68.5 68.7----
2024-02-23 06:30 am E 1.9 2.9------ 67.8 68.7----
2024-02-23 06:24 am E 1.9 2.9------ 67.8 68.7----
2024-02-23 06:18 am E 1.9 2.9------ 68.2 68.7----
2024-02-23 06:12 amESE 1.9 2.9------ 68.0 68.7----
2024-02-23 06:06 amESE 1.0 1.9------ 67.8 68.7----
2024-02-23 06:00 am SE 1.0 2.9------ 67.3 68.7----
2024-02-23 05:54 amSSE 1.9 2.9------ 66.9 68.7----
2024-02-23 05:48 am- 0.0 1.9------ 66.7 68.7----
2024-02-23 05:42 amSSE 1.0 2.9------ 66.7 68.9----
2024-02-23 05:36 am S 1.9 2.9------ 66.6 68.9----
2024-02-23 05:30 am S 1.9 4.1------ 66.0 68.9----
2024-02-23 05:24 am S 1.0 2.9------ 65.5 68.9----
2024-02-23 05:18 am- 0.0 1.9------ 65.7 68.9----
2024-02-23 05:12 am- 0.0 0.0------ 65.7 68.9----
2024-02-23 05:06 am- 0.0 0.0------ 65.8 68.9----
2024-02-23 05:00 am- 0.0 1.0------ 65.8 68.9----
2024-02-23 04:54 am- 0.0 1.0------ 66.0 68.9----
2024-02-23 04:48 am- 0.0 1.0------ 65.8 68.9----
2024-02-23 04:42 am E 1.0 1.9------ 65.8 68.9----
2024-02-23 04:36 am E 1.9 1.9------ 66.0 68.9----
2024-02-23 04:30 amENE 1.0 1.9------ 66.0 68.9----
2024-02-23 04:24 amENE 1.0 2.9------ 66.0 68.9----
2024-02-23 04:18 amENE 1.9 2.9------ 66.4 68.9----
2024-02-23 04:12 am NE 1.9 1.9------ 66.4 68.9----
2024-02-23 04:06 amENE 1.0 2.9------ 66.0 68.9----
2024-02-23 04:00 am NE 1.9 2.9------ 66.0 68.9----
2024-02-23 03:54 am NE 1.9 1.9------ 65.7 68.9----
2024-02-23 03:48 am NE 1.9 2.9------ 65.8 68.9----
2024-02-23 03:42 amENE 1.0 1.9------ 65.3 68.9----
2024-02-23 03:36 am- 0.0 1.0------ 64.9 68.9----
2024-02-23 03:30 amENE 1.0 1.9------ 65.1 68.9----
2024-02-23 03:24 amENE 1.9 2.9------ 65.1 68.9----
2024-02-23 03:18 amENE 1.9 2.9------ 65.5 68.9----
2024-02-23 03:12 amENE 1.0 2.9------ 65.5 68.9----
2024-02-23 03:06 am E 1.9 2.9------ 65.5 68.9----
2024-02-23 03:00 amENE 1.9 2.9------ 65.3 69.1----
2024-02-23 02:54 amENE 1.9 4.1------ 65.3 69.1----
2024-02-23 02:48 am E 1.9 2.9------ 65.3 69.1----
2024-02-23 02:42 am E 1.9 4.1------ 65.3 69.1----
2024-02-23 02:36 am E 1.9 4.1------ 65.7 69.1----
2024-02-23 02:30 am E 2.9 4.1------ 66.0 69.1----
2024-02-23 02:24 am E 2.9 4.1------ 66.4 69.1----
2024-02-23 02:18 am E 2.9 5.1------ 66.7 69.1----
2024-02-23 02:12 amENE 4.1 5.1------ 67.1 69.1----
2024-02-23 02:06 amENE 2.9 5.1------ 67.1 69.1----
2024-02-23 02:00 amENE 5.1 5.1------ 67.1 69.1----
2024-02-23 01:54 amENE 4.1 5.1------ 67.1 69.1----
2024-02-23 01:48 amENE 4.1 5.1------ 67.1 69.1----
2024-02-23 01:42 amENE 4.1 5.1------ 67.1 69.1----
2024-02-23 01:36 am NE 4.1 4.1------ 67.3 69.1----
2024-02-23 01:30 am NE 2.9 4.1------ 67.3 69.1----
2024-02-23 01:24 amNNE 4.1 4.1------ 67.5 69.3----
2024-02-23 01:18 amNNE 2.9 4.1------ 67.3 69.3----
2024-02-23 01:12 amNNE 2.9 4.1------ 67.3 69.3----
2024-02-23 01:06 amNNE 1.9 1.9------ 66.9 69.3----
2024-02-23 01:00 am N 1.9 1.9------ 66.7 69.3----
2024-02-23 12:54 am- 0.0 1.0------ 66.7 69.3----
2024-02-23 12:48 am N 1.0 1.9------ 67.1 69.3----
2024-02-23 12:42 am N 1.9 1.9------ 67.1 69.3----
2024-02-23 12:36 amNNE 1.0 2.9------ 67.1 69.3----
2024-02-23 12:30 am NE 1.9 2.9------ 67.1 69.3----
2024-02-23 12:24 am N 1.0 2.9------ 66.9 69.3----
2024-02-23 12:18 am NW 1.0 1.9------ 66.9 69.3----
2024-02-23 12:12 am NW 1.9 2.9------ 67.1 69.3----
2024-02-23 12:06 amNNW 1.9 1.9------ 67.1 69.3----
2024-02-23 12:00 am- 0.0 2.9------ 67.1 69.3----
2024-02-22 11:54 pm NW 1.9 2.9------ 67.1 69.3----
2024-02-22 11:48 pm NW 1.9 2.9------ 67.3 69.3----
2024-02-22 11:42 pm NW 1.9 5.1------ 67.3 69.3----
2024-02-22 11:36 pm NW 4.1 6.0------ 67.5 69.3----
2024-02-22 11:30 pm NW 4.1 5.1------ 67.5 69.3----
2024-02-22 11:24 pmNNW 2.9 4.1------ 67.3 69.3----
2024-02-22 11:18 pmNNW 1.0 2.9------ 67.3 69.3----
2024-02-22 11:12 pmNNW 1.9 2.9------ 67.3 69.3----
2024-02-22 11:06 pm NW 1.9 4.1------ 67.5 69.3----
2024-02-22 11:00 pm NW 1.9 1.9------ 67.3 69.3----
2024-02-22 10:54 pmNNW 1.0 2.9------ 67.5 69.3----
2024-02-22 10:48 pmNNW 1.0 2.9------ 67.5 69.4----
2024-02-22 10:42 pm N 1.0 2.9------ 67.5 69.4----
2024-02-22 10:36 pmNNW 1.0 2.9------ 67.5 69.4----
2024-02-22 10:30 pm- 0.0 2.9------ 67.5 69.4----
2024-02-22 10:24 pmNNW 1.0 4.1------ 67.6 69.4----
2024-02-22 10:18 pm N 1.9 2.9------ 67.6 69.4----
2024-02-22 10:12 pm N 1.9 2.9------ 67.5 69.4----
2024-02-22 10:06 pm NW 1.0 2.9------ 67.6 69.4----
2024-02-22 10:00 pmNNW 1.9 2.9------ 67.6 69.4----
2024-02-22 09:54 pmNNW 1.9 4.1------ 67.6 69.4----
2024-02-22 09:48 pmNNW 2.9 4.1------ 67.6 69.4----
2024-02-22 09:42 pmNNW 1.9 4.1------ 67.6 69.4----
2024-02-22 09:36 pmNNW 1.0 2.9------ 67.6 69.4----
2024-02-22 09:30 pmNNW 1.0 2.9------ 67.6 69.4----
2024-02-22 09:24 pmNNW 1.0 2.9------ 67.6 69.4----
2024-02-22 09:18 pm NW 2.9 4.1------ 67.8 69.4----
2024-02-22 09:12 pm NW 1.9 2.9------ 67.6 69.4----
2024-02-22 09:06 pm NW 1.9 2.9------ 67.6 69.4----
2024-02-22 09:00 pm NW 1.9 2.9------ 67.6 69.4----
2024-02-22 08:54 pm NW 1.9 2.9------ 67.6 69.4----
2024-02-22 08:48 pm NW 1.0 1.9------ 66.9 69.4----
2024-02-22 08:42 pm- 0.0 1.9------ 66.9 69.4----
2024-02-22 08:36 pm NW 1.0 1.9------ 67.5 69.4----
2024-02-22 08:30 pmNNW 1.9 1.9------ 67.5 69.4----
2024-02-22 08:24 pm- 0.0 1.0------ 66.7 69.4----
2024-02-22 08:18 pm- 0.0 1.0------ 66.9 69.4----
2024-02-22 08:12 pm- 0.0 1.0------ 67.3 69.4----
2024-02-22 08:06 pmNNW 1.0 1.9------ 67.3 69.4----
2024-02-22 08:00 pm- 0.0 1.0------ 66.6 69.4----
2024-02-22 07:54 pm- 0.0 1.0------ 66.2 69.4----
2024-02-22 07:48 pmWNW 1.0 1.0------ 66.6 69.4----
2024-02-22 07:42 pm- 0.0 0.0------ 66.6 69.4----
2024-02-22 07:36 pm- 0.0 0.0------ 66.6 69.4----
2024-02-22 07:30 pm- 0.0 1.0------ 66.7 69.4----
2024-02-22 07:24 pm- 0.0 1.0------ 66.9 69.4----
2024-02-22 07:18 pm- 0.0 1.0------ 66.9 69.4----
2024-02-22 07:12 pm- 0.0 1.0------ 67.3 69.4----
2024-02-22 07:06 pmNNW 1.0 1.0------ 67.5 69.4----
2024-02-22 07:00 pm N 1.0 1.0------ 67.5 69.4----
2024-02-22 06:54 pm- 0.0 1.9------ 67.5 69.4----
2024-02-22 06:48 pm N 1.0 1.0------ 67.5 69.4----
2024-02-22 06:42 pm- 0.0 1.9------ 67.5 69.4----
2024-02-22 06:36 pm N 1.0 1.9------ 67.5 69.6----
2024-02-22 06:30 pm- 0.0 1.0------- 69.6----
2024-02-22 06:24 pm- 0.0 1.9------- 69.6----
2024-02-22 06:18 pm N 1.0 1.9------ 67.6 69.6----
2024-02-22 06:00 pm N 1.0 1.9------- 69.4----
2024-02-22 05:54 pm N 1.9 1.9------- 69.4----
2024-02-22 05:48 pm N 1.0 1.9------ 68.2 69.4----
2024-02-22 05:42 pm N 1.9 2.9------ 68.2 69.6----
2024-02-22 05:36 pmNNE 1.9 2.9------ 68.2 69.6----
2024-02-22 05:30 pm N 1.9 2.9------ 68.5 69.6----
2024-02-22 05:24 pm N 1.9 2.9------ 68.5 69.6----
2024-02-22 05:18 pm N 1.9 2.9------ 68.5 69.6----
2024-02-22 05:12 pm N 1.9 2.9------ 68.7 69.6----
2024-02-22 05:06 pm N 1.9 4.1------ 68.7 69.6----
2024-02-22 05:00 pmNNE 1.9 4.1------ 68.7 69.6----
2024-02-22 04:54 pm N 2.9 4.1------ 68.5 69.6----
2024-02-22 04:48 pm N 1.9 2.9------ 68.4 69.6----
2024-02-22 04:42 pm N 1.9 2.9------ 68.4 69.6----
2024-02-22 04:36 pmNNE 2.9 4.1------ 68.0 69.6----
2024-02-22 04:30 pmNNE 2.9 4.1------ 67.8 69.6----
2024-02-22 04:24 pmNNE 2.9 4.1------ 68.0 69.6----
2024-02-22 04:18 pmNNE 2.9 4.1------ 68.0 69.6----
2024-02-22 04:12 pmNNE 2.9 4.1------ 68.0 69.4----
2024-02-22 04:06 pmNNE 2.9 4.1------ 67.8 69.4----
2024-02-22 04:00 pmNNE 2.9 4.1------ 67.8 69.4----
2024-02-22 03:54 pmNNE 2.9 4.1------ 67.8 69.4----